Location: Hillern
(53.0557°N, 9.8577°E)
Time: 16:11:00
(UTC+00:00)

Cosmos 1833 Rocket - Pass Details

Date: 19 May 2025
Orbit: 831 x 839 km, 71.0° (Epoch: 16 June)

Event Time Altitude Azimuth Distance (km) Brightness Sun altitude
Rises 20:23:03 0° 196° (SSW) 3,379 5.5 -7.9°
Reaches altitude 10° 20:25:31 10° 193° (SSW) 2,449 4.8 -8.1°
Maximum altitude 20:31:01 60° 115° (ESE) 961 2.8 -8.6°
Drops below altitude 10° 20:36:34 10° 37° (NE) 2,465 5.3 -9.2°
Sets 20:39:03 0° 34° (NNE) 3,403 6.1 -9.4°
